Time,TemperatureF,DewpointF,PressureIn,WindDirection,WindDirectionDegrees,WindSpeedMPH,WindSpeedGustMPH,Humidity,HourlyPrecipIn,Conditions,Clouds,dailyrainin,SoftwareType,DateUTC
2013-01-06 13:12:00,48.0,-99.9,30.14,NW,325,6.0,6.0,-999,-99.99,,,-99.99,,2013-01-06 21:12:00,
2013-01-06 13:22:00,48.0,-99.9,30.13,NW,325,4.0,5.0,-999,-99.99,,,-99.99,,2013-01-06 21:22:00,
2013-01-06 13:33:00,49.0,-99.9,30.14,NNW,330,4.0,7.0,-999,-99.99,,,-99.99,,2013-01-06 21:33:00,
2013-01-06 13:43:00,49.0,-99.9,30.13,North,354,3.0,6.0,-999,-99.99,,,-99.99,,2013-01-06 21:43:00,
2013-01-06 13:53:00,49.0,-99.9,30.13,NNW,332,5.0,6.0,-999,-99.99,,,-99.99,,2013-01-06 21:53:00,
2013-01-06 14:02:00,49.0,-99.9,30.13,NW,319,4.0,5.0,-999,-99.99,,,-99.99,,2013-01-06 22:02:00,
2013-01-06 14:12:00,49.0,-99.9,30.13,NW,320,5.0,6.0,-999,-99.99,,,-99.99,,2013-01-06 22:12:00,
2013-01-06 14:23:00,49.0,-99.9,30.13,NW,312,3.0,4.0,-999,-99.99,,,-99.99,,2013-01-06 22:23:00,
2013-01-06 14:33:00,49.0,-99.9,30.13,NW,326,3.0,4.0,-999,-99.99,,,-99.99,,2013-01-06 22:33:00,
2013-01-06 14:43:00,49.0,-99.9,30.13,NNW,338,4.0,5.0,-999,-99.99,,,-99.99,,2013-01-06 22:43:00,
2013-01-06 14:53:00,50.0,-99.9,30.13,NNW,346,4.0,5.0,-999,-99.99,,,-99.99,,2013-01-06 22:53:00,
2013-01-06 15:02:00,50.0,-99.9,30.13,NNW,346,6.0,7.0,-999,-99.99,,,-99.99,,2013-01-06 23:02:00,
2013-01-06 15:13:00,50.0,-99.9,30.13,NNW,346,6.0,7.0,-999,-99.99,,,-99.99,,2013-01-06 23:13:00,
2013-01-06 15:22:00,50.0,-99.9,30.13,NNW,339,5.0,6.0,-999,-99.99,,,-99.99,,2013-01-06 23:22:00,
2013-01-06 15:33:00,50.0,-99.9,30.13,North,353,5.0,5.0,-999,-99.99,,,-99.99,,2013-01-06 23:33:00,
2013-01-06 15:43:00,50.0,-99.9,30.13,North,350,5.0,6.0,-999,-99.99,,,-99.99,,2013-01-06 23:43:00,
2013-01-06 15:53:00,50.0,-99.9,30.14,North,353,4.0,6.0,-999,-99.99,,,-99.99,,2013-01-06 23:53:00,
2013-01-06 16:03:00,50.0,-99.9,30.14,NNW,336,3.0,3.0,-999,-99.99,,,-99.99,,2013-01-07 00:03:00,
2013-01-06 16:12:00,50.0,-99.9,30.14,NW,316,2.0,3.0,-999,-99.99,,,-99.99,,2013-01-07 00:12:00,
2013-01-06 16:23:00,50.0,-99.9,30.14,NW,324,1.0,2.0,-999,-99.99,,,-99.99,,2013-01-07 00:23:00,
2013-01-06 16:33:00,50.0,-99.9,30.14,NW,324,1.0,2.0,-999,-99.99,,,-99.99,,2013-01-07 00:33:00,
2013-01-06 16:43:00,50.0,-99.9,30.14,NNW,338,2.0,2.0,-999,-99.99,,,-99.99,,2013-01-07 00:43:00,
2013-01-06 16:53:00,50.0,-99.9,30.14,NW,319,3.0,4.0,-999,-99.99,,,-99.99,,2013-01-07 00:53:00,
2013-01-06 17:03:00,51.0,-99.9,30.14,WNW,283,4.0,6.0,-999,-99.99,,,-99.99,,2013-01-07 01:03:00,
2013-01-06 17:12:00,51.0,-99.9,30.14,WSW,255,4.0,7.0,-999,-99.99,,,-99.99,,2013-01-07 01:12:00,
2013-01-06 17:23:00,51.0,-99.9,30.14,WSW,254,3.0,7.0,-999,-99.99,,,-99.99,,2013-01-07 01:23:00,
2013-01-06 17:32:00,51.0,-99.9,30.14,WSW,248,4.0,7.0,-999,-99.99,,,-99.99,,2013-01-07 01:32:00,
2013-01-06 17:43:00,51.0,-99.9,30.14,WSW,244,6.0,9.0,-999,-99.99,,,-99.99,,2013-01-07 01:43:00,
2013-01-06 17:53:00,51.0,-99.9,30.14,SW,230,5.0,7.0,-999,-99.99,,,-99.99,,2013-01-07 01:53:00,
2013-01-06 18:02:00,51.0,-99.9,30.13,WSW,255,6.0,7.0,-999,-99.99,,,-99.99,,2013-01-07 02:02:00,
2013-01-06 18:12:00,51.0,-99.9,30.13,SW,236,5.0,6.0,-999,-99.99,,,-99.99,,2013-01-07 02:12:00,
2013-01-06 18:23:00,51.0,-99.9,30.13,WSW,238,6.0,9.0,-999,-99.99,,,-99.99,,2013-01-07 02:23:00,
2013-01-06 18:33:00,51.0,-99.9,30.13,WSW,245,4.0,8.0,-999,-99.99,,,-99.99,,2013-01-07 02:33:00,
2013-01-06 18:43:00,51.0,-99.9,30.13,WSW,249,7.0,9.0,-999,-99.99,,,-99.99,,2013-01-07 02:43:00,
2013-01-06 18:53:00,51.0,-99.9,30.13,WSW,256,3.0,8.0,-999,-99.99,,,-99.99,,2013-01-07 02:53:00,
2013-01-06 19:03:00,51.0,-99.9,30.14,WSW,254,4.0,6.0,-999,-99.99,,,-99.99,,2013-01-07 03:03:00,
2013-01-06 19:12:00,51.0,-99.9,30.14,WSW,253,4.0,6.0,-999,-99.99,,,-99.99,,2013-01-07 03:12:00,
2013-01-06 19:23:00,51.0,-99.9,30.14,WSW,254,4.0,7.0,-999,-99.99,,,-99.99,,2013-01-07 03:23:00,
2013-01-06 19:33:00,50.0,-99.9,30.14,West,261,3.0,5.0,-999,-99.99,,,-99.99,,2013-01-07 03:33:00,
2013-01-06 19:43:00,50.0,-99.9,30.14,WSW,257,4.0,6.0,-999,-99.99,,,-99.99,,2013-01-07 03:43:00,
2013-01-06 19:53:00,50.0,-99.9,30.14,WSW,256,3.0,5.0,-999,-99.99,,,-99.99,,2013-01-07 03:53:00,
2013-01-06 20:02:00,49.0,-99.9,30.15,West,278,4.0,5.0,-999,-99.99,,,-99.99,,2013-01-07 04:02:00,
2013-01-06 20:13:00,49.0,-99.9,30.15,West,274,3.0,5.0,-999,-99.99,,,-99.99,,2013-01-07 04:13:00,
2013-01-06 20:22:00,50.0,-99.9,30.15,WSW,258,4.0,5.0,-999,-99.99,,,-99.99,,2013-01-07 04:22:00,
2013-01-06 20:33:00,50.0,-99.9,30.15,WSW,251,4.0,5.0,-999,-99.99,,,-99.99,,2013-01-07 04:33:00,
2013-01-06 20:42:00,50.0,-99.9,30.15,WSW,247,4.0,6.0,-999,-99.99,,,-99.99,,2013-01-07 04:42:00,
2013-01-06 20:53:00,50.0,-99.9,30.15,WSW,244,4.0,6.0,-999,-99.99,,,-99.99,,2013-01-07 04:53:00,
2013-01-06 21:03:00,50.0,-99.9,30.16,South,186,2.0,4.0,-999,-99.99,,,-99.99,,2013-01-07 05:03:00,
2013-01-06 21:12:00,49.0,-99.9,30.16,SE,145,2.0,3.0,-999,-99.99,,,-99.99,,2013-01-07 05:12:00,
2013-01-06 21:22:00,49.0,-99.9,30.16,ESE,114,6.0,6.0,-999,-99.99,,,-99.99,,2013-01-07 05:22:00,
2013-01-06 21:33:00,48.0,-99.9,30.16,East,80,6.0,6.0,-999,-99.99,,,-99.99,,2013-01-07 05:33:00,
2013-01-06 21:43:00,48.0,-99.9,30.16,East,98,6.0,6.0,-999,-99.99,,,-99.99,,2013-01-07 05:43:00,
2013-01-06 21:53:00,48.0,-99.9,30.16,ESE,106,6.0,6.0,-999,-99.99,,,-99.99,,2013-01-07 05:53:00,
2013-01-06 22:02:00,48.0,-99.9,30.16,SE,130,5.0,6.0,-999,-99.99,,,-99.99,,2013-01-07 06:02:00,
2013-01-06 22:12:00,48.0,-99.9,30.16,SE,127,7.0,7.0,-999,-99.99,,,-99.99,,2013-01-07 06:12:00,
2013-01-06 22:22:00,48.0,-99.9,30.16,SE,127,6.0,7.0,-999,-99.99,,,-99.99,,2013-01-07 06:22:00,
2013-01-06 22:32:00,48.0,-99.9,30.16,SE,128,4.0,6.0,-999,-99.99,,,-99.99,,2013-01-07 06:32:00,
2013-01-06 22:42:00,48.0,-99.9,30.15,SE,138,4.0,5.0,-999,-99.99,,,-99.99,,2013-01-07 06:42:00,
2013-01-06 22:52:00,48.0,-99.9,30.15,SE,127,6.0,7.0,-999,-99.99,,,-99.99,,2013-01-07 06:52:00,
2013-01-06 23:02:00,48.0,-99.9,30.15,SE,130,6.0,8.0,-999,-99.99,,,-99.99,,2013-01-07 07:02:00,
2013-01-06 23:12:00,48.0,-99.9,30.15,ESE,123,6.0,8.0,-999,-99.99,,,-99.99,,2013-01-07 07:12:00,
2013-01-06 23:23:00,47.0,-99.9,30.16,SE,128,5.0,6.0,-999,-99.99,,,-99.99,,2013-01-07 07:23:00,
2013-01-06 23:33:00,47.0,-99.9,30.16,ESE,119,5.0,5.0,-999,-99.99,,,-99.99,,2013-01-07 07:33:00,
2013-01-06 23:43:00,47.0,-99.9,30.16,ESE,117,4.0,5.0,-999,-99.99,,,-99.99,,2013-01-07 07:43:00,
2013-01-06 23:53:00,47.0,-99.9,30.16,East,91,4.0,4.0,-999,-99.99,,,-99.99,,2013-01-07 07:53:00,